Miscellaneous Local Product
Issued by NWS North Platte, NE

Home | Current Version | Previous Version | Graphics & Text | Print | Product List | Glossary On
Versions: 1 2 3 4 5 6 7 8 9 10 11 12 13 14 15 16 17 18 19 20 21 22 23 24 25 26 27 28 29 30 31 32 33 34 35 36 37 38 39 40 41 42 43 44 45 46 47 48 49 50
000
AXUS43 KLBF 220910
MISLBF


WESTERN AND NORTH CENTRAL NEBRASKA HOURLY WEATHER ROUNDUP
NATIONAL WEATHER SERVICE NORTH PLATTE NE
400 AM CDT FRI JUL 22 2016

NOTE: "FAIR" INDICATES FEW OR NO CLOUDS BELOW 12,000 FEET WITH NO
SIGNIFICANT WEATHER AND/OR OBSTRUCTIONS TO VISIBILITY.

NOTE: STATIONS NOT REPORTING VARIABLES SUCH AS SKY/WEATHER OR
PRESSURE ARE PROVIDED BY RAWS AND APRS NETWORKS AND ARE NOT UNDER
NATIONAL WEATHER SERVICE QUALITY CONTROL.

...OBSERVATIONS IN AND NEAR THE EASTERN PANHANDLE OF NEBRASKA...

CITY           SKY/WX    TMP DP  RH WIND       PRES   REMARKS
PINE RIDGE     PTCLDY    67  66  97 CALM      30.07F
CHADRON        CLOUDY    63  57  81 CALM      30.07S
ALLIANCE       MOCLDY    62  59  90 CALM      30.11F
SIDNEY         CLOUDY    73  66  78 SE6       30.15F
CRESCENT LAKE    N/A     72  69  89 N3          N/A
$$

...OBSERVATIONS IN NORTHERN NEBRASKA AND FAR SOUTHERN SOUTH DAKOTA...

CITY           SKY/WX    TMP DP  RH WIND       PRES   REMARKS
WINNER         FAIR      77  74  90 CALM      29.98S FOG
VALENTINE      CLEAR     69  67  93 NW3       30.02S
THEDFORD       CLEAR     71  69  93 W3        30.05S
AINSWORTH      CLEAR     73  72  97 CALM      30.01S
O`NEILL        CLEAR     75  73  94 N3        29.96S
ORD            CLEAR     72  70  93 CALM      29.94S
BROKEN BOW     CLEAR     76  71  85 CALM      29.98S
BUTTE            N/A     77  76  96 NE12        N/A
HALSEY           N/A     74  70  88 NW3         N/A
EWING            N/A     74  73  97 CALM        N/A
$$

...OBSERVATIONS IN SOUTHWEST NEBRASKA AND FAR NORTHEAST COLORADO...

CITY           SKY/WX    TMP DP  RH WIND       PRES   REMARKS
WRAY           FAIR      68  59  73 SW6       30.09F
HOLYOKE        FAIR      70  64  83 W5        30.10F
IMPERIAL       CLOUDY    73  65  75 W6        30.06S
OGALLALA       PTCLDY    71  68  92 W3        30.06F
NORTH PLATTE   CLEAR     69  67  93 NW6       30.02S
MCCOOK         PTCLDY    74  70  87 N5        29.98F
LEXINGTON      CLEAR     73  71  93 NW3       29.98S FOG
STAPLETON        N/A     72  69  92 CALM        N/A
GOTHENBURG       N/A     75  70  85 NW3         N/A
CALLAWAY         N/A     72  71  98 N8          N/A
$$

...OBSERVATIONS IN CENTRAL LINCOLN COUNTY AREA...

CITY           SKY/WX    TMP DP  RH WIND       PRES   REMARKS
N.P. AIRPORT   CLEAR     69  67  93 NW6       30.02S
N.P. DOWNTOWN    N/A     73  70  91 CALM        N/A
N.P. HILLCREST   N/A     74  70  87 NE3         N/A
$$

...SOME OBSERVATIONS FROM AROUND THE REGION...

CITY           SKY/WX    TMP DP  RH WIND       PRES   REMARKS
DENVER         MOCLDY    75  49  39 SW8       30.23S
LARAMIE        CLOUDY    63  45  51 CALM      30.39F
CHEYENNE       CLOUDY    73  43  33 NW3       30.28F
SCOTTSBLUFF    CLOUDY    71  64  78 N5        30.12S
RAPID CITY     CLOUDY    73  60  63 W6        30.05S
BISMARCK       MOCLDY    68  65  90 CALM      30.01S
PIERRE         PTCLDY    77  76  96 SE5       29.95R
SIOUX FALLS    PTCLDY    79  76  90 NE10      29.96S
OMAHA          CLOUDY    84  75  74 S10       29.91S HX  92
GRAND ISLAND   CLEAR     76  68  76 SW6       29.93S
KANSAS CITY    PTCLDY    82  72  71 SW12      29.99S
WICHITA        CLEAR     78  68  71 S8        30.02S
OKLAHOMA CITY  CLEAR     73  68  84 S6        30.05S
DALLAS         CLEAR     83  67  58 S6        30.03S
AMARILLO       CLEAR     72  56  57 S10       30.14F
DODGE CITY     CLEAR     73  63  70 S9        30.04F
HAYS           CLEAR     72  61  68 SW3       29.99F
GOODLAND       CLOUDY    78  59  51 W6        30.04F
$$




USA.gov is the U.S. government's official web portal to all federal, state and local government web resources and services.